Location: B?dargowo
(53.3916°N, 14.4413°E)
Time: 05:19:31
(UTC+00:00)

Cosmos 2369 Rocket - Pass Details

Date: 05 February 2023
Orbit: 829 x 852 km, 71.0° (Epoch: 24 March)

Event Time Altitude Azimuth Distance (km) Brightness Sun altitude
Rises 17:56:36 0° 322° (NW) 3,384 5.9 -18.6°
Reaches altitude 10° 17:59:57 10° 342° (NNW) 2,447 4.8 -19.1°
Maximum altitude 18:03:34 17° 23° (NNE) 1,987 3.9 -19.7°
Enters shadow 18:04:22 17° 33° (NNE) 2,012 3.9 -19.8°
